• Processing (Info)

  • MPEC 2020-B96 : 2020 BX3

    The following Minor Planet Electronic Circular may be linked-to from your own Web pages, but must not otherwise be redistributed electronically.

    A form allowing access to any MPEC is at the bottom of this page.


    Read MPEC 2020-B95 Read MPEC 2020-B97


    M.P.E.C. 2020-B96                              Issued 2020 January 23, 16:20 UT
    
         The Minor Planet Electronic Circulars contain information on unusual
             minor planets and routine data on comets.  They are published
        on behalf of Division F of the International Astronomical Union by the
              Minor Planet Center, Smithsonian Astrophysical Observatory,
                              Cambridge, MA 02138, U.S.A.
    
                 Prepared using the Tamkin Foundation Computer Network
    
                                  MPC@CFA.HARVARD.EDU
                URL https://www.minorplanetcenter.net/    ISSN 1523-6714
    
                                    2020 BX3                                 
    
    
    Observations:
         K20B03X  C2019 12 24.51526310 23 05.150+14 50 05.05         22.6 GVEB096F51
         K20B03X  C2019 12 24.52743010 23 05.048+14 50 01.77         23.2 GVEB096F51
         K20B03X  C2019 12 24.55188010 23 04.857+14 49 54.51         23.2 GVEB096F51
         K20B03X* C2020 01 19.44601210 04 33.142+13 00 06.02         21.80wUEB096F51
         K20B03X  C2020 01 19.45886010 04 31.976+13 00 03.20         22.39wUEB096F51
         K20B03X  C2020 01 19.47173610 04 30.793+13 00 00.30         21.89wUEB096F51
         K20B03X  C2020 01 19.48467410 04 29.638+12 59 57.25         22.09wUEB096F51
         K20B03X  C2020 01 20.43149 10 03 04.767+12 56 20.52         21.9 wUEB096F51
         K20B03X KC2020 01 20.43240 10 03 04.30 +12 56 19.2          22.9 RoEB096291
         K20B03X KC2020 01 20.43688 10 03 03.86 +12 56 18.1          22.0 RoEB096291
         K20B03X KC2020 01 20.44137 10 03 03.44 +12 56 17.3          22.3 RoEB096291
         K20B03X  C2020 01 20.44305 10 03 03.670+12 56 18.01         21.7 wUEB096F51
         K20B03X  C2020 01 20.45465 10 03 02.583+12 56 15.26         21.9 wUEB096F51
         K20B03X  C2020 01 21.43696610 01 30.438+12 52 30.84         21.75wUEB096F52
         K20B03X  C2020 01 21.45826310 01 28.345+12 52 25.81         21.82wUEB096F52
         K20B03X  C2020 01 21.46905810 01 27.284+12 52 23.50         21.98wUEB096F52
         K20B03X  C2020 01 21.57719210 01 16.520+12 51 58.72         21.72wUEB096F51
         K20B03X  C2020 01 21.58950610 01 15.295+12 51 55.92         21.93wUEB096F51
         K20B03X  C2020 01 21.60179510 01 14.057+12 51 52.99         22.07wUEB096F51
         K20B03X  C2020 01 21.61416810 01 12.837+12 51 49.98         21.77wUEB096F51
         K20B03X KC2020 01 23.35994 09 58 18.30 +12 45 08.4          22.2 RoEB096291
         K20B03X KC2020 01 23.36444 09 58 17.81 +12 45 07.6          21.9 RoEB096291
    
    Observer details:
    291 LPL/Spacewatch II.  Observer M. T. Read.  1.8-m f/2.7 reflector + CCD.
    F51 Pan-STARRS 1, Haleakala.  Observers J. Bulger, K. Chambers, T. Lowe, A. 
       Schultz, M. Willman.  Measurers S. Chastel, M. Huber, Y. Ramanjooloo, R. 
       Wainscoat, R. Weryk, K. Chambers, T. de Boer, L. Denneau, J. Fairlamb, H. 
       Flewelling, C.-C. Lin, E. Magnier.  1.8-m Ritchey-Chretien + CCD.
    F52 Pan-STARRS 2, Haleakala.  Observers J. Bulger, T. Dukes, T. Lowe, A. 
       Schultz, M. Willman.  Measurers K. Chambers, S. Chastel, T. de Boer, L. 
       Denneau, J. Fairlamb, H. Flewelling, M. Huber, C.-C. Lin, E. Magnier, Y. 
       Ramanjooloo, R. Wainscoat, R. Weryk.  1.8-m Ritchey-Chretien + CCD.
    
    Orbital elements:
    2020 BX3                                                 Earth MOID = 0.2898 AU
    Epoch 2020 May 31.0 TT = JDT 2459000.5                  Veres
    M 353.61007              (2000.0)            P               Q
    n   0.42433446     Peri.  318.93296     +0.12031714     +0.94629267
    a   1.7538691      Node   315.42817     -0.76185420     -0.10579047
    e   0.6796353      Incl.   25.31526     -0.63647621     +0.30551360
    P   2.32           H   19.5           G   0.15           U   6
    Residuals in seconds of arc
    191224 F51  0.1+  0.1-    200120 291  0.1+  0.2+    200121 F51  0.1+  0.0
    191224 F51  0.1-  0.1+    200120 291  0.1-  0.1+    200121 F51  0.1+  0.0
    191224 F51  0.0   0.0     200120 291  0.1-  0.3+    200121 F51  0.1-  0.0
    200119 F51  0.0   0.0     200120 F51  0.1-  0.0     200121 F51  0.0   0.1-
    200119 F51  0.0   0.1+    200120 F51  0.1+  0.2-    200123 291  0.0   0.1+
    200119 F51  0.2-  0.1+    200121 F52  0.3-  0.1+    200123 291  0.1-  0.3+
    200119 F51  0.2+  0.1-    200121 F52  0.1-  0.1-
    200120 F51  0.0   0.1-    200121 F52  0.1+  0.0
    
    Ephemeris:
    2020 BX3                 a,e,i = 1.75, 0.68, 25                  q = 0.5619
    Date    TT    R. A. (2000) Decl.     Delta      r    Elong.  Phase     V
    2019 12 24    10 23 07.6 +14 52 38   1.5100  2.1687   119.3    23.3    23.2
    ...
    2020 01 08    10 17 08.2 +13 45 07   1.2436  2.0642   135.6    19.5    22.5
    ...
    2020 01 16    10 09 11.6 +13 13 20   1.1160  2.0051   145.4    16.2    22.1
    ...
    2020 01 22    10 00 35.7 +12 50 23   1.0290  1.9591   153.4    13.0    21.8
    2020 01 23    09 58 55.4 +12 46 34   1.0154  1.9513   154.8    12.4    21.7
    2020 01 24    09 57 11.0 +12 42 44   1.0020  1.9434   156.2    11.8    21.7
    ...
    2020 01 30    09 45 15.8 +12 18 59   0.9273  1.8955   164.8     7.8    21.3
    ...
    2020 02 07    09 25 33.0 +11 43 13   0.8444  1.8293   175.8     2.3    20.7
    ...
    2020 02 22    08 39 56.3 +10 11 43   0.7462  1.6976   155.9    13.8    20.8
    
    A. U. Tomatic                (C) Copyright 2020 MPC           M.P.E.C. 2020-B96
    


    Read MPEC 2020-B95 Read MPEC 2020-B97


    MPEC number:

    Enter an MPEC number in one of the following forms:

    • 1997-B01 (the full form)
    • J97B01 (the packed version of the full form)
    • B01 (the abbreviated form)